Powrót do katalogu

SL-16 DEB

AktywnyLEO
NORAD 22370·DEBRIS·🇷🇺 Russia

Wystrzelony Dec 25, 1992 z Baikonur Cosmodrome

Loading…

Następne Przeloty (najbliższe 24 godziny)

TLE

ŚwieżeSource: Space-Track

Epoka: Sep 14, 2026, 09:27 UTC

1 22370U 92093BK  26257.39405894  .00000471  00000-0  29292-3 0  9990
2 22370  70.9746  47.8214 0106194  78.1708 309.9016 14.07216763725028

Śledź SL-16 DEB w czasie rzeczywistym z AllMySat

Download on the App Store